Theta_e
309 309 309 309 309 309 309 309 308 309 309 308 308 308 307 307 306 306 306 308 308 307 307 308 309 309 311 313 313 312 311 311 312 313 315 316 316 318 318 321 330 335 330 326 327 332 338 340 340 341 341 340 341 340 340 339 339 339 339 339 339 339 339 339 340 340 340 339 338 338 338 338 338 338 337 337 337 336 334 334 334 334 334 335 334 333 333
310 310 311 310 309 309 309 309 308 308 309 309 308 308 308 307 307 307 307 308 308 308 308 308 309 311 312 312 312 312 312 313 313 314 316 316 316 318 319 320 329 336 333 327 325 328 335 340 340 341 341 341 340 340 340 339 339 339 339 339 339 339 339 339 339 340 340 339 338 338 338 338 338 338 337 337 337 335 334 334 334 333 334 335 334 333 332
311 311 312 311 310 309 309 309 309 309 309 310 310 310 310 309 309 307 307 308 308 308 309 310 313 315 314 314 315 315 315 316 316 316 316 316 316 318 318 317 325 335 335 330 326 326 331 338 340 340 340 341 340 340 340 339 339 338 338 338 339 338 338 338 338 338 339 339 337 337 338 338 338 338 337 337 337 335 334 334 334 333 334 335 334 333 332
312 312 313 312 311 310 310 310 311 311 311 311 312 312 312 311 311 310 309 308 307 309 313 315 317 318 318 318 319 319 319 320 319 318 317 317 317 317 318 317 319 328 334 333 328 325 326 333 339 340 339 340 340 340 340 339 338 338 338 338 338 338 338 338 338 338 338 337 336 336 337 338 338 338 337 336 336 335 333 334 334 333 334 335 333 332 331
312 312 313 312 312 312 312 312 311 311 312 312 312 312 312 311 311 311 310 309 309 312 316 317 317 318 320 321 321 321 322 321 320 320 319 318 317 318 321 322 319 322 331 335 332 330 329 331 336 340 340 340 340 339 339 339 338 338 338 338 338 338 338 338 338 338 337 336 336 335 336 337 337 337 336 335 334 334 333 333 333 334 335 334 332 331 330
312 313 313 312 313 314 313 311 309 310 311 312 313 314 314 313 312 311 311 312 314 316 317 317 317 318 319 320 321 321 321 321 321 321 319 318 320 322 324 326 322 319 326 334 334 333 333 332 334 339 340 339 339 339 339 339 339 338 338 338 338 338 338 338 337 337 337 336 336 336 336 336 336 336 336 335 333 333 333 333 333 334 334 332 331 330 329
312 313 313 314 315 315 313 310 309 309 310 311 311 311 311 312 313 315 315 316 316 316 317 317 317 318 319 320 321 321 320 320 319 319 319 320 323 326 326 327 325 319 322 333 335 334 334 334 335 338 339 340 340 340 340 340 339 339 339 338 338 338 338 338 337 337 336 336 336 336 336 335 336 337 336 335 334 334 333 333 334 334 332 331 331 330 328
312 313 314 316 316 313 311 311 311 311 311 311 311 311 312 313 315 316 317 316 315 315 316 317 317 318 320 320 321 320 319 318 317 318 321 323 325 327 327 328 327 321 320 330 335 334 334 335 336 338 339 339 340 340 340 339 339 339 339 339 338 338 337 338 337 337 336 336 336 336 336 335 335 337 337 335 334 333 333 334 334 333 331 331 330 329 328
313 313 315 315 314 313 312 312 311 311 312 312 313 314 314 315 315 316 316 316 315 315 316 316 317 319 320 321 322 320 316 316 318 321 323 324 325 327 328 329 327 322 321 330 336 335 335 335 336 337 339 339 339 340 340 339 339 339 339 339 339 338 338 337 337 337 337 336 336 336 335 334 335 337 337 335 333 333 334 335 334 332 331 330 330 329 327
311 312 314 316 315 314 313 311 310 310 311 313 314 314 315 317 316 315 316 316 316 316 315 315 317 319 321 323 323 319 316 318 320 322 323 324 326 327 328 330 327 322 322 330 336 336 335 336 336 337 338 339 339 339 339 339 339 339 339 339 339 338 338 337 337 337 337 337 337 336 335 334 335 337 336 334 333 334 334 334 333 332 330 330 329 329 327
310 311 313 316 316 315 313 310 310 310 311 312 314 315 317 317 315 314 315 316 317 317 316 316 318 319 320 322 323 321 320 320 321 322 323 324 326 328 329 330 327 323 324 332 337 337 337 337 337 338 338 338 339 339 339 339 339 339 339 339 339 339 338 338 338 337 337 337 337 336 335 334 335 337 335 333 332 333 333 333 333 332 330 329 330 329 327
309 309 312 314 314 314 313 311 310 310 310 312 315 316 316 314 312 313 316 316 317 318 317 317 319 319 318 319 321 320 320 320 321 322 323 324 326 328 330 329 326 324 327 333 337 337 337 338 338 338 338 338 339 339 339 339 339 339 339 339 339 339 338 338 338 337 337 337 337 336 335 333 335 336 335 333 332 332 332 333 331 330 329 330 330 329 327
308 308 310 311 313 313 312 310 310 310 311 313 314 315 314 312 312 314 316 316 317 318 317 316 317 319 319 319 320 320 320 320 321 322 323 324 326 328 330 328 325 327 331 335 337 338 338 338 338 338 338 338 339 338 338 338 339 339 339 339 339 339 339 339 338 338 337 337 337 337 335 333 335 336 335 334 334 332 331 331 330 329 330 331 330 329 328
307 308 308 309 312 312 310 309 309 310 311 313 312 311 310 311 313 314 315 316 317 317 317 316 317 318 319 319 319 320 320 321 322 323 323 324 326 328 330 328 325 328 333 336 337 338 338 338 338 338 338 338 338 338 338 338 338 338 338 339 339 339 339 338 338 338 337 337 337 337 334 333 335 336 334 333 334 333 330 330 330 330 330 331 329 327 328
307 307 308 309 311 311 309 309 309 309 310 311 310 310 310 311 312 314 314 315 315 316 317 318 318 319 319 319 320 320 320 321 322 323 323 325 326 328 330 329 327 327 331 336 337 337 338 338 338 338 338 338 338 338 338 338 338 337 338 338 339 339 338 338 338 338 337 337 337 336 334 333 335 335 334 334 334 332 330 330 330 331 331 330 328 327 328
306 307 307 308 309 308 308 309 309 309 309 309 309 310 311 311 311 312 313 313 313 315 317 318 319 319 319 319 319 320 321 322 322 323 324 325 327 328 329 330 330 327 329 334 337 337 338 338 338 338 338 338 338 338 338 338 338 338 338 338 338 339 339 338 338 338 337 337 337 336 334 334 335 335 334 334 333 331 330 329 330 331 331 329 328 328 329
306 306 307 307 307 307 307 308 309 309 309 309 309 310 311 311 311 312 312 313 314 316 318 318 319 319 319 319 319 320 321 322 323 323 324 325 327 328 328 330 331 329 329 332 335 337 337 338 338 338 338 338 338 338 338 338 338 338 338 338 338 338 338 337 337 338 337 337 336 335 334 334 334 334 334 334 333 331 330 329 330 331 330 329 329 329 329
306 307 307 307 308 308 308 308 309 309 309 309 310 310 311 311 311 312 312 314 316 317 318 318 318 318 318 318 319 320 322 323 323 324 324 325 326 328 328 329 330 330 330 331 333 335 337 337 338 338 338 338 338 338 338 337 337 337 337 338 337 336 335 335 335 336 335 334 334 334 333 334 334 333 332 333 333 331 330 330 331 331 330 329 329 329 329
307 308 308 308 308 308 308 308 309 309 309 309 310 310 310 311 311 312 313 315 316 317 318 318 318 318 318 318 319 320 322 323 324 324 325 326 327 327 328 328 329 330 331 330 332 334 336 337 337 337 338 338 338 338 337 337 336 336 337 337 336 334 334 334 334 334 334 333 332 333 333 332 332 332 333 332 331 330 330 331 332 331 331 330 329 328 329
307 308 308 308 308 308 308 308 309 309 309 309 310 310 310 311 312 313 313 315 316 317 317 318 317 317 318 319 319 320 323 324 324 325 326 327 327 327 327 328 328 329 330 331 331 332 334 335 336 337 337 337 337 337 337 337 337 337 337 337 336 335 335 334 333 333 333 333 332 333 332 331 330 332 333 332 330 330 331 332 332 332 331 330 328 328 328
307 307 307 308 308 309 308 308 308 308 309 309 309 309 310 311 312 313 315 316 317 317 318 318 318 319 320 319 319 321 324 324 325 326 326 327 327 327 327 327 327 327 328 330 331 332 332 334 335 336 337 337 337 337 337 337 336 336 336 336 336 335 335 334 333 333 333 333 333 333 333 332 331 332 333 333 332 332 332 333 332 331 330 329 328 328 328
306 306 306 307 308 308 308 308 308 308 308 309 309 309 309 310 311 312 314 317 318 319 319 319 319 320 321 320 320 322 324 325 325 326 326 326 326 326 326 327 327 326 327 328 330 331 331 333 334 335 336 336 337 337 337 337 336 336 336 335 334 334 333 334 333 331 331 332 333 333 334 334 333 333 333 334 333 332 332 332 332 331 329 329 328 328 328
305 305 305 306 306 307 307 307 307 307 308 308 308 308 309 310 312 312 314 316 318 319 319 320 319 320 322 323 322 323 324 325 325 325 325 325 326 326 327 327 327 326 327 328 329 330 330 331 332 334 335 336 336 336 336 336 336 336 335 334 334 334 333 333 331 329 330 333 334 333 333 333 332 332 333 333 332 332 331 331 331 331 330 329 328 328 328
304 304 304 305 305 305 306 306 306 307 308 307 307 308 309 310 312 313 315 316 317 318 319 320 320 320 322 325 324 323 324 325 324 324 325 325 326 326 327 327 327 326 327 328 329 330 330 331 331 332 334 335 335 335 335 335 336 336 335 334 333 333 333 333 332 331 332 333 333 332 332 332 332 332 332 331 331 332 330 330 330 330 328 327 326 327 327
302 302 303 303 304 304 305 305 306 306 306 306 307 307 309 310 312 314 315 317 318 318 319 319 320 321 323 324 324 324 324 324 323 324 324 325 326 326 326 326 327 326 326 327 328 329 330 331 331 331 332 333 334 335 335 335 336 336 336 334 333 332 332 332 333 333 333 332 330 329 331 332 332 332 331 331 332 331 329 328 328 328 326 325 325 326 326
301 301 301 302 303 303 304 305 305 305 305 306 306 307 308 310 312 314 315 316 317 318 318 318 319 322 324 324 324 324 324 323 323 324 324 324 325 325 326 326 326 326 326 326 327 328 329 330 330 330 331 332 333 334 334 335 335 336 336 335 333 333 332 332 333 333 333 331 329 329 331 331 331 331 331 331 332 331 329 328 327 326 325 324 324 324 324
300 300 301 301 302 303 303 304 304 304 305 305 306 306 307 309 312 314 315 316 317 318 318 318 318 321 324 325 325 325 324 323 323 323 323 323 324 325 325 325 326 326 326 326 327 327 328 328 329 330 330 331 332 332 333 333 334 334 334 334 333 333 333 333 333 333 333 331 330 331 332 331 331 332 332 331 331 330 329 328 327 326 325 324 324 323 323
300 300 300 301 302 302 302 302 303 303 304 304 305 306 307 309 312 314 315 316 317 317 318 319 319 320 323 324 325 325 325 324 324 324 323 323 324 325 325 325 325 326 326 326 326 327 327 327 328 329 329 330 330 331 332 332 332 332 332 333 332 332 332 332 332 333 332 332 331 332 333 333 332 331 330 330 330 329 329 328 326 325 324 323 322 322 322
299 299 299 300 300 301 302 302 302 302 303 304 305 306 306 308 311 313 314 315 316 315 315 317 319 320 322 323 324 325 325 325 324 324 324 324 324 325 325 324 324 325 325 325 325 326 326 326 327 327 328 328 329 329 330 330 330 330 331 331 331 330 329 330 331 332 332 331 331 332 333 332 331 330 328 328 329 329 329 328 326 325 324 323 321 321 321
299 299 299 299 300 301 302 302 301 302 302 303 304 305 306 307 309 311 313 314 314 314 314 316 317 318 319 321 323 324 325 325 325 324 324 324 324 325 325 324 323 324 325 325 325 325 325 325 326 326 326 326 327 327 328 328 328 328 328 329 330 330 329 329 331 332 331 331 331 332 332 331 329 329 327 327 327 328 327 326 325 324 324 322 321 321 321
299 299 299 299 300 300 301 301 301 301 302 303 303 304 305 307 308 310 312 314 314 313 314 316 316 314 315 319 322 323 323 325 325 325 325 325 325 324 325 324 323 324 324 324 324 324 324 324 325 325 325 325 325 326 327 327 327 327 327 328 329 329 329 330 330 330 331 331 330 330 329 328 327 327 327 327 326 326 325 325 324 323 322 322 321 320 321
298 299 299 299 299 300 300 301 301 301 301 302 303 304 304 306 307 308 311 313 313 313 314 315 315 313 312 315 320 322 323 323 325 325 325 325 325 324 324 324 324 324 324 324 323 323 322 323 324 324 324 324 324 325 326 326 327 327 327 328 329 329 329 330 329 328 329 329 328 327 327 326 326 326 327 326 325 324 324 323 323 323 322 321 321 320 320
298 299 299 299 299 299 300 300 300 300 300 301 302 304 304 305 306 308 310 313 313 313 314 314 314 313 312 313 316 320 322 323 323 324 324 325 324 324 324 324 325 325 325 324 323 322 322 322 323 323 323 323 323 323 324 325 326 326 327 328 329 329 329 328 328 327 328 328 327 327 326 326 326 326 325 325 324 323 323 322 322 322 321 321 320 320 320
297 298 298 298 298 298 299 299 299 299 300 301 302 304 305 305 307 309 311 313 313 313 314 313 313 313 313 312 313 317 321 323 324 324 324 324 324 324 323 324 324 325 325 325 325 325 324 324 323 323 323 323 323 323 323 324 325 326 327 327 328 328 327 327 328 328 327 327 327 326 326 325 325 324 324 323 323 323 322 322 321 321 320 319 319 319 319
297 297 297 297 298 297 298 298 298 298 299 300 302 304 305 305 307 310 312 313 313 313 313 313 312 312 313 312 311 312 317 321 323 323 323 323 324 324 323 323 324 325 325 325 326 326 326 326 325 325 325 324 325 325 324 324 326 327 327 328 328 327 327 327 327 327 327 326 326 325 325 324 324 323 323 323 322 321 321 320 320 319 319 319 318 317 317
297 297 297 297 297 296 297 298 298 299 300 301 303 304 305 306 308 310 312 313 313 314 313 313 312 312 312 312 312 311 314 319 322 322 322 323 324 324 324 323 323 324 324 325 325 325 326 326 326 325 325 325 325 325 326 326 327 327 327 327 327 327 326 326 326 326 325 325 325 324 324 323 323 323 322 322 321 319 319 318 318 318 317 317 317 316 315
296 296 296 296 296 297 297 298 299 300 301 302 304 305 306 307 309 311 312 313 313 314 312 312 312 312 311 311 312 312 314 319 321 321 322 323 323 323 323 323 323 323 324 323 323 323 324 324 325 325 324 324 324 325 325 326 326 326 326 326 326 326 325 325 324 324 323 323 323 323 323 322 322 321 320 319 319 318 318 317 317 316 316 315 315 315 315
296 296 296 295 296 297 298 299 300 300 302 303 305 306 307 308 309 311 312 313 313 313 312 311 311 310 309 311 312 312 314 319 321 321 321 322 323 322 322 322 322 323 323 322 321 322 322 323 324 324 324 323 323 324 324 325 325 325 325 325 325 324 324 324 323 323 322 322 322 321 321 321 320 319 318 317 316 316 316 315 315 315 315 314 314 314 314
295 295 295 295 296 297 298 299 300 301 302 303 304 306 308 309 310 311 312 313 313 313 311 310 310 309 309 311 312 312 314 319 321 321 320 321 321 321 321 321 321 322 322 321 321 321 321 322 322 323 323 323 323 323 323 324 324 324 325 324 324 324 323 322 322 321 320 319 318 318 317 317 317 316 315 315 315 314 314 314 314 313 313 313 312 312 312
295 295 295 295 297 298 299 299 301 303 304 304 305 307 308 309 310 311 312 313 313 312 310 309 310 310 311 312 312 311 313 318 321 321 320 320 320 320 320 320 320 322 322 321 320 321 321 321 321 321 322 322 323 322 322 322 323 323 323 323 322 322 321 320 320 319 318 317 317 316 316 316 315 315 314 314 314 313 313 313 313 312 312 312 311 311 311
294 294 295 296 298 299 300 301 302 304 305 306 307 307 308 309 310 311 312 312 313 312 310 310 310 310 311 312 311 311 314 318 321 320 319 319 319 319 320 320 320 321 322 321 321 321 321 321 321 321 321 321 322 321 320 320 321 322 322 321 321 320 320 319 319 318 318 317 317 316 316 316 315 315 314 314 313 312 312 312 312 311 311 311 311 310 310
294 294 295 296 298 299 300 301 303 305 306 307 307 308 308 309 309 310 311 312 312 310 310 310 310 310 311 311 310 311 314 318 319 319 319 319 319 319 319 320 320 321 321 321 321 321 321 321 321 320 319 319 319 319 319 319 320 320 320 320 320 319 319 319 318 318 318 317 317 317 316 316 315 315 314 314 313 313 312 312 311 311 311 311 311 310 310
294 294 295 295 296 298 299 301 303 304 305 306 307 307 308 308 308 309 310 311 310 310 310 310 310 310 312 313 312 313 315 317 318 318 319 319 319 319 319 319 319 320 320 320 320 320 320 320 320 319 317 316 316 317 317 317 318 318 318 318 318 318 317 317 316 316 315 315 315 314 314 314 315 315 314 314 314 313 312 311 310 310 310 309 309 309 309
294 294 294 295 296 297 299 300 302 304 305 306 307 307 307 308 308 309 310 310 310 310 310 311 311 312 314 315 315 315 316 317 317 317 318 318 318 318 318 318 319 319 319 319 319 320 320 320 320 319 318 316 316 315 315 315 316 316 317 317 316 315 314 313 313 312 311 311 310 310 310 310 311 312 313 313 313 312 311 310 309 309 308 308 308 308 308
293 293 294 294 296 297 298 299 301 303 305 306 307 307 307 307 308 309 310 310 311 310 310 312 313 314 314 314 314 315 315 315 316 316 316 316 317 317 317 317 318 318 318 318 318 318 319 320 320 319 319 318 317 316 316 315 315 315 315 314 313 312 312 311 311 310 310 310 309 308 308 308 308 309 311 312 312 311 311 310 309 308 308 308 308 308 307
293 293 294 294 295 296 297 298 300 303 305 306 307 307 307 307 307 309 309 310 310 311 311 312 314 313 312 312 313 314 314 315 315 315 315 315 316 316 317 317 317 317 317 317 316 317 317 318 318 318 319 319 318 317 317 316 315 314 314 312 312 311 311 311 311 310 310 309 309 308 308 307 307 307 309 310 310 310 310 310 309 308 308 308 307 307 307
293 293 294 294 295 296 297 298 300 303 305 306 307 307 307 307 307 309 309 310 310 311 311 312 312 311 311 311 312 312 313 314 314 314 314 314 314 315 315 315 315 316 316 316 316 316 317 317 317 317 318 318 317 317 316 316 315 314 313 312 311 311 311 311 311 310 310 309 309 308 308 307 307 306 306 307 307 307 307 308 308 308 308 308 307 307 307
292 293 293 294 295 295 296 297 299 302 304 305 306 307 307 307 308 309 310 310 310 310 310 310 310 309 309 309 309 310 310 311 312 312 313 313 313 314 314 314 314 315 315 315 316 316 316 316 316 316 316 316 316 315 315 315 314 314 313 313 312 311 311 311 311 310 309 309 309 308 308 307 307 306 305 305 305 304 304 305 307 308 308 308 308 307 307
292 292 293 294 295 295 295 296 297 300 302 304 305 306 306 306 307 308 308 308 309 309 309 309 308 308 307 308 308 309 309 310 311 311 311 311 312 312 313 314 314 314 314 314 314 314 315 315 316 315 315 315 315 314 314 315 314 314 313 313 312 312 312 312 311 310 309 309 309 308 308 307 306 306 306 305 305 304 304 304 305 306 307 307 307 307 305
291 291 292 293 294 295 295 295 295 298 301 303 304 305 306 306 307 307 307 307 308 308 308 307 306 306 306 307 307 308 308 309 309 310 310 310 311 311 311 312 312 313 313 313 313 313 314 314 315 314 314 315 314 314 314 314 314 313 313 313 312 312 312 311 311 310 310 309 308 307 306 306 306 305 305 305 305 304 304 305 305 305 305 305 305 304 303
291 291 291 292 293 294 295 295 295 298 301 303 303 304 306 306 307 306 307 307 307 306 306 305 305 305 305 306 306 306 307 307 307 307 308 308 309 310 310 310 310 311 311 312 312 312 312 313 313 313 314 314 314 313 313 313 313 312 312 312 312 311 310 310 310 311 310 309 307 306 306 305 305 304 304 303 303 304 305 306 305 304 304 304 303 303 302
291 291 291 292 292 294 295 296 297 298 301 302 303 304 305 305 305 305 306 306 306 305 305 305 305 306 306 306 306 306 307 307 307 307 307 308 308 308 309 309 310 310 310 310 310 311 311 311 312 312 312 313 313 313 312 312 311 311 311 311 310 310 309 309 310 310 309 308 307 306 306 305 304 304 304 303 303 303 304 305 304 303 303 303 303 303 302
Wind_Speed
13 12 10 10 11 12 11 12 12 10 8 9 12 15 13 7 8 15 17 12 12 18 19 15 13 8 5 9 15 22 26 27 25 23 23 28 31 27 23 18 12 10 16 25 31 34 35 35 38 43 44 40 37 37 39 41 41 42 45 47 46 44 46 51 51 50 48 45 43 41 39 38 37 35 33 32 30 30 29 27 25 24 22 20 20 21 19
13 11 10 10 12 13 11 12 13 12 11 12 13 14 15 14 16 20 21 18 18 19 17 14 13 10 9 13 20 24 26 26 26 23 23 26 28 25 20 13 10 9 14 24 31 35 36 35 36 40 41 39 37 36 38 40 40 41 44 46 45 43 46 51 50 49 48 47 44 41 39 39 37 36 34 32 31 30 30 28 26 25 24 22 22 21 19
9 6 5 7 9 12 11 10 11 11 11 12 13 14 15 15 17 19 19 19 20 15 9 10 13 12 10 12 18 23 25 24 24 25 26 27 26 24 19 13 10 9 11 20 30 35 37 37 36 38 39 38 39 39 40 42 44 45 46 47 46 45 46 48 48 48 48 46 43 41 40 39 38 36 34 32 31 32 31 30 28 26 25 24 23 21 19
6 0 1 3 2 6 7 8 9 10 11 12 12 12 12 13 15 16 15 15 15 9 6 8 13 12 9 10 15 20 22 21 22 24 26 27 27 24 20 17 14 11 9 16 27 34 39 39 37 37 37 36 36 38 41 44 46 45 45 47 47 46 46 47 48 48 46 43 42 41 40 39 38 35 33 32 32 33 33 31 29 27 26 25 24 22 20
5 2 4 3 4 4 1 2 3 6 9 11 12 11 11 12 12 11 11 11 10 9 10 12 13 12 9 9 14 18 20 23 26 27 27 28 27 24 21 20 17 13 8 9 20 30 37 40 38 36 36 36 37 40 43 43 42 43 45 47 48 47 47 47 47 46 44 43 43 42 40 39 37 35 33 33 34 35 33 31 29 27 25 24 24 22 21
6 8 6 0 3 4 3 1 1 2 7 10 11 11 12 11 9 9 10 11 11 11 11 12 13 14 14 15 19 22 22 24 29 30 28 26 24 24 23 21 17 11 7 7 13 24 33 38 38 36 36 37 38 40 42 40 40 43 46 47 48 48 48 47 46 46 45 45 44 43 40 39 36 34 33 34 36 35 33 30 30 28 26 25 25 24 22
6 8 5 1 0 3 1 3 4 6 10 12 12 14 16 13 10 8 8 10 12 12 14 16 16 18 21 22 25 27 24 22 25 27 25 23 23 25 26 23 18 11 4 6 11 19 28 34 36 35 35 35 36 37 38 38 40 43 43 44 46 47 47 46 46 47 46 46 45 43 40 38 35 34 33 33 34 34 32 32 31 29 27 27 27 25 23
4 5 4 3 1 1 3 5 5 7 9 9 8 11 11 9 5 6 10 12 13 13 16 19 19 21 24 24 25 26 21 17 17 19 22 23 23 26 26 23 20 12 4 7 12 18 25 30 34 35 35 36 38 38 37 38 41 42 41 43 44 45 45 45 47 48 46 46 46 43 40 37 35 36 35 32 32 34 34 33 31 27 26 28 27 24 22
4 6 5 2 2 2 3 4 6 9 10 9 7 5 3 2 2 7 13 13 13 15 18 20 22 22 19 15 18 20 15 15 15 19 23 22 22 26 25 20 17 11 7 9 13 18 25 30 33 34 35 36 39 40 39 40 42 42 42 43 44 45 45 45 47 47 46 46 46 44 40 37 36 39 36 32 32 35 35 33 31 29 28 28 27 23 22
5 6 4 2 2 3 6 9 13 17 19 15 5 3 1 2 3 9 15 14 13 14 16 20 22 19 11 7 9 11 11 15 21 24 21 18 22 26 23 18 14 10 9 11 14 18 24 29 31 32 34 36 39 41 41 41 42 41 42 43 44 45 45 45 47 47 46 46 46 44 39 36 38 41 36 31 32 34 34 33 32 31 29 28 28 24 20
6 6 5 4 3 1 4 10 17 25 29 18 2 3 2 1 6 17 18 15 13 11 12 18 17 10 7 5 8 13 20 26 29 26 21 21 26 25 21 17 14 9 8 11 14 19 23 26 28 31 34 37 39 41 40 41 41 42 42 43 44 45 45 46 47 46 45 46 47 44 38 35 40 41 34 29 30 31 32 33 31 30 29 30 29 25 19
7 7 5 3 2 2 4 10 19 29 32 18 3 2 3 6 17 25 20 16 17 14 14 18 12 4 3 8 17 28 34 34 30 24 21 24 27 26 21 15 10 8 7 10 15 20 24 25 27 32 34 36 38 39 39 40 41 42 43 43 44 45 45 46 46 45 45 46 45 43 37 35 40 40 33 29 29 30 30 31 30 30 31 31 29 25 21
8 8 6 3 2 2 4 14 23 29 26 13 2 4 9 15 25 28 23 21 22 20 16 15 11 9 11 17 27 35 34 32 29 22 17 21 24 22 18 13 7 8 6 9 14 18 21 24 26 30 32 34 35 37 38 39 41 42 42 42 43 44 44 45 45 44 44 44 44 41 35 34 40 39 32 30 31 30 30 31 31 31 31 30 28 25 23
8 7 6 5 2 0 9 22 27 21 11 4 4 13 23 26 27 28 26 24 23 23 21 18 18 21 23 23 26 29 29 29 28 21 17 21 22 17 14 10 4 7 6 8 12 15 18 21 24 28 31 33 34 36 37 39 39 39 39 40 41 42 44 44 43 43 43 43 44 40 34 34 40 38 31 31 31 30 30 32 33 32 31 29 28 27 26
6 6 7 6 2 5 17 24 18 10 6 8 15 22 28 31 30 28 26 26 26 26 25 25 25 27 27 24 24 27 28 28 26 20 18 21 21 16 12 10 2 5 6 7 11 13 16 19 21 25 28 31 33 35 37 37 36 36 37 38 38 40 42 43 42 42 43 44 44 40 33 34 38 38 34 33 32 31 31 33 35 34 32 30 30 29 29
5 6 6 4 5 13 21 18 10 11 17 22 23 23 23 30 34 29 25 29 32 30 27 28 29 29 28 26 25 28 30 29 26 21 17 18 20 16 12 10 6 1 5 7 9 12 15 17 19 23 27 30 33 34 35 35 35 36 36 35 37 38 40 42 42 41 43 46 45 39 34 35 37 37 36 33 32 33 33 35 36 35 32 32 32 31 31
4 6 8 11 14 20 23 21 18 22 25 26 27 24 22 28 34 32 28 31 34 33 30 28 28 28 28 27 26 27 28 28 26 21 17 16 18 17 13 11 8 3 3 6 8 11 15 17 19 24 28 31 33 33 32 32 33 34 35 36 37 37 37 38 40 41 44 47 44 37 35 38 37 34 33 34 35 35 36 36 37 34 33 34 34 32 31
7 9 13 16 18 22 28 30 25 21 23 28 29 28 26 30 36 37 34 31 32 33 31 28 28 29 29 27 26 25 25 25 24 21 18 16 16 16 15 13 10 6 2 5 8 11 15 17 20 23 26 28 30 32 33 32 31 32 34 36 36 34 33 35 37 40 42 42 39 35 33 35 35 31 32 36 36 36 36 35 34 34 34 34 32 31 31
9 8 9 13 20 27 31 30 25 24 30 35 35 32 33 36 39 38 35 31 31 32 32 32 31 29 27 25 23 21 21 21 22 21 19 17 16 15 15 13 10 7 4 3 7 11 15 18 19 20 22 23 26 30 32 32 31 31 34 37 36 34 35 36 37 38 38 34 34 34 33 32 33 33 33 34 35 35 35 34 33 34 34 32 30 31 31
9 10 13 22 31 31 24 19 20 26 34 41 42 41 41 42 42 40 36 33 31 32 33 33 31 29 27 23 20 20 19 18 19 19 18 18 17 15 14 14 11 8 6 3 5 9 13 16 19 21 21 21 25 30 31 31 32 33 36 38 38 35 36 37 37 37 36 34 35 37 36 34 36 37 36 36 35 34 34 34 34 34 33 31 31 31 30
9 9 15 24 27 23 20 26 34 37 38 41 43 44 46 47 47 46 44 40 37 34 34 31 29 29 28 22 18 18 18 17 18 18 18 19 17 15 14 15 13 10 8 4 4 7 11 14 18 21 23 23 26 29 29 29 32 35 36 38 39 36 36 37 37 35 35 36 37 38 37 37 37 37 37 38 36 32 31 32 31 30 29 30 30 30 30
7 8 15 20 17 13 21 36 44 42 39 38 39 41 44 44 44 44 44 43 42 39 34 30 28 29 28 22 17 18 18 17 18 19 19 19 17 15 14 15 13 11 9 7 3 3 8 12 16 19 23 25 27 28 28 28 29 33 35 38 39 38 37 38 37 35 36 38 40 39 39 39 40 39 39 39 37 32 30 30 28 25 25 25 24 26 29
8 13 19 21 16 15 23 34 40 40 36 35 37 39 41 40 42 42 40 39 40 40 37 33 29 27 27 24 21 20 19 18 19 19 19 18 16 15 15 15 13 11 9 9 7 4 1 7 13 16 20 26 29 28 28 27 28 30 34 37 39 41 41 42 41 39 40 42 43 42 41 41 42 42 43 43 39 33 28 28 27 24 22 20 18 21 27
13 17 21 21 20 23 29 34 37 35 31 32 35 38 40 41 42 42 39 35 34 35 37 36 32 28 27 27 24 22 21 20 19 18 17 17 16 15 14 13 13 11 9 8 7 5 3 2 7 11 17 24 27 26 25 25 26 28 30 34 38 41 43 44 44 44 44 44 44 44 44 43 43 45 46 44 39 32 29 28 27 23 21 20 19 21 25
14 17 21 23 24 26 28 30 32 32 32 34 35 37 41 43 41 39 38 35 33 33 35 35 34 31 28 27 26 24 21 20 18 17 17 17 16 15 14 13 12 11 9 6 5 4 3 1 3 8 13 19 22 23 23 24 26 28 29 31 36 41 43 44 44 44 44 43 43 43 43 44 45 46 44 40 36 34 34 32 28 23 22 21 21 22 24
13 16 22 26 27 26 25 25 31 38 41 40 37 39 43 44 40 38 37 34 33 34 33 33 34 33 29 27 28 26 22 19 19 18 17 17 17 17 17 15 14 13 10 6 4 3 3 3 5 8 12 15 19 21 23 25 28 30 30 30 34 38 40 42 44 44 43 42 41 41 40 42 43 41 38 36 36 37 37 34 30 26 25 23 23 23 23
17 17 19 20 23 29 31 28 32 39 42 39 36 38 43 43 39 37 36 33 31 31 30 31 33 32 30 29 29 27 24 21 20 19 19 20 21 20 18 16 15 14 12 7 5 5 5 5 6 9 12 14 17 21 24 27 30 31 32 34 37 39 41 43 44 44 42 41 39 38 36 37 38 37 37 38 37 36 36 35 33 31 29 27 26 25 24
23 24 20 15 18 26 31 32 34 37 38 37 34 35 39 41 39 37 36 34 30 30 30 31 31 31 31 30 29 28 27 24 22 22 22 22 22 21 19 18 17 16 14 10 7 6 6 6 7 8 10 12 15 19 24 29 32 33 34 36 38 40 42 43 43 42 40 40 40 38 35 35 36 36 37 37 34 32 34 34 31 30 30 28 28 27 26
30 33 30 26 24 24 26 30 36 37 38 39 39 38 39 40 38 38 39 36 31 29 31 31 30 29 29 28 28 27 26 25 24 22 21 21 20 20 20 19 18 17 15 11 8 7 7 7 7 8 9 10 12 15 20 26 30 32 34 36 38 39 39 39 39 38 37 37 38 37 34 34 34 34 34 33 29 29 32 30 27 26 27 28 28 28 27
35 37 37 35 32 26 24 30 37 39 40 41 42 41 40 37 35 36 38 36 30 28 30 32 32 30 28 28 28 27 24 23 22 21 19 19 18 18 19 20 20 19 17 13 9 7 6 6 7 7 6 7 8 10 14 19 24 26 29 33 36 35 32 32 33 34 34 35 36 34 32 31 31 30 30 28 25 25 27 26 23 23 25 27 27 27 28
33 36 37 36 34 30 28 30 34 38 40 40 40 41 41 39 36 35 37 36 31 26 27 31 33 31 29 28 29 27 23 20 21 20 19 18 18 18 20 22 23 23 20 15 11 8 6 4 3 2 2 3 5 7 9 13 19 22 25 30 31 29 26 27 30 32 33 33 33 31 29 29 29 28 28 27 25 24 24 22 22 22 23 23 24 24 24
31 34 34 34 34 32 30 28 30 36 41 41 39 38 37 34 32 32 33 35 31 26 26 28 29 29 29 28 27 27 23 19 18 20 20 19 19 20 21 21 21 23 23 20 15 11 8 4 1 2 2 1 3 6 8 11 15 19 23 25 26 24 23 24 26 28 29 27 25 25 26 27 27 27 27 26 25 24 23 22 23 23 23 22 22 22 22
26 28 30 31 32 33 31 28 28 33 39 40 38 37 36 33 30 30 31 32 30 26 25 26 25 25 26 26 24 23 21 17 17 20 21 21 20 20 19 19 19 20 23 22 19 17 13 9 6 6 6 5 2 4 6 10 14 18 21 23 23 23 22 21 23 25 25 25 25 25 25 25 24 24 25 25 24 23 23 23 23 23 23 22 21 21 21
21 23 25 26 27 28 31 31 31 33 38 39 37 36 37 34 31 29 29 30 28 25 23 24 23 22 23 24 23 21 20 18 18 20 21 21 19 18 17 16 15 16 19 19 19 20 19 15 12 13 13 12 10 7 6 9 14 18 22 25 26 28 28 27 27 28 28 28 27 26 25 25 24 24 24 24 23 23 22 22 22 23 23 22 21 21 21
22 23 24 24 24 26 28 32 33 34 37 39 38 36 35 33 30 29 28 27 26 24 22 21 20 19 20 23 22 21 20 19 18 18 19 19 18 16 15 14 13 14 16 17 18 20 19 17 16 17 18 19 19 17 13 13 17 22 25 26 26 28 28 27 27 27 28 28 27 26 25 25 24 23 23 22 22 21 21 21 21 22 22 22 22 22 22
21 23 25 26 28 29 30 31 32 33 34 36 36 35 33 30 28 27 27 26 24 22 20 19 18 17 19 21 21 21 21 18 15 16 17 17 15 14 14 14 14 15 16 18 19 19 18 17 18 19 19 19 20 20 18 18 21 24 25 26 26 26 26 26 26 26 27 28 27 27 26 25 24 23 23 22 21 21 20 21 21 20 19 19 19 19 18
22 25 27 27 29 30 30 30 30 30 31 32 31 30 30 29 27 26 25 24 22 19 17 16 17 17 18 18 19 19 18 16 14 14 14 13 13 12 12 13 14 15 16 18 19 18 17 17 16 16 16 17 18 18 18 19 22 24 26 27 28 28 28 28 28 28 28 29 28 27 26 25 24 23 22 21 21 20 20 19 19 18 17 16 15 14 13
26 26 26 26 26 28 29 28 26 26 28 29 28 26 26 26 26 25 24 22 19 17 15 15 16 17 16 15 16 16 15 14 13 11 10 9 9 10 11 12 14 14 15 16 17 16 16 15 13 12 13 16 17 18 19 19 21 22 24 26 27 28 29 29 29 29 28 27 26 26 25 24 24 23 22 21 20 19 18 17 17 17 16 15 14 13 12
27 25 24 25 27 29 29 28 26 25 26 27 27 26 25 25 25 24 22 18 16 14 15 15 15 15 14 13 13 13 13 12 11 9 8 8 9 10 11 12 13 13 13 13 13 13 13 13 11 11 12 14 16 18 20 20 20 22 23 24 25 27 27 28 28 28 27 25 24 23 22 21 20 20 19 19 18 18 17 16 15 15 14 14 13 13 12
26 26 27 29 31 31 31 29 28 26 25 25 25 25 25 24 23 21 19 15 13 13 14 14 13 12 11 10 10 11 11 10 9 8 8 9 10 10 11 13 14 14 13 12 12 12 12 11 10 11 14 15 15 17 19 20 20 22 24 25 26 26 27 27 26 26 25 24 22 21 19 18 16 15 15 15 16 15 15 15 15 14 14 13 13 14 13
27 28 29 30 31 31 30 30 29 27 26 23 22 22 21 20 18 18 16 13 10 11 12 11 9 9 10 9 9 9 8 7 8 8 8 9 8 10 12 13 13 13 14 13 12 12 11 10 9 12 15 16 17 17 19 20 22 24 25 26 25 25 25 25 24 23 23 22 20 19 18 16 15 14 14 13 13 12 13 14 15 15 15 15 14 14 14
30 31 31 31 32 31 31 30 29 29 26 21 18 18 19 18 16 16 15 11 9 10 11 9 7 8 9 8 7 7 6 5 5 6 6 7 8 10 13 14 12 12 13 13 12 12 12 12 12 14 17 19 20 20 19 21 23 24 24 24 24 23 23 23 22 22 21 20 19 18 17 16 15 15 14 13 12 12 11 12 13 14 15 14 14 13 13
32 32 32 32 32 33 33 31 29 30 27 19 14 16 19 17 16 15 13 10 9 10 11 9 7 7 8 6 4 3 3 3 4 4 6 8 9 10 12 13 13 13 13 13 12 13 14 14 15 16 17 19 20 20 20 20 21 21 22 23 23 23 23 23 23 23 22 21 19 18 17 15 14 14 13 13 13 12 13 14 14 14 13 13 12 13 13
32 31 32 32 33 34 33 30 29 30 26 17 12 16 19 16 14 14 13 10 9 9 8 6 4 4 4 4 3 3 3 5 5 5 7 10 11 11 11 12 13 12 12 12 12 13 14 15 16 17 17 17 19 19 19 19 20 20 21 22 23 24 25 25 26 25 24 23 22 21 19 17 15 13 12 12 12 13 14 15 15 14 14 13 13 13 12
31 30 31 32 33 33 32 30 29 28 22 14 13 17 17 14 11 10 9 8 6 4 2 1 4 6 7 8 7 6 7 9 9 8 9 12 12 11 10 11 12 11 11 11 12 12 13 14 15 16 16 16 17 18 18 18 19 19 20 22 24 26 26 25 25 24 23 22 22 21 19 18 16 13 12 12 12 11 12 13 14 14 14 13 12 12 11
31 31 30 31 33 32 30 28 26 22 17 13 14 16 14 10 7 6 7 6 4 2 2 4 7 9 10 10 10 10 10 11 11 11 12 14 14 12 10 10 11 11 11 11 12 14 14 15 15 15 14 15 16 18 19 18 18 19 21 23 25 26 25 24 23 22 21 20 20 19 18 17 15 12 11 11 11 10 10 11 13 14 14 13 11 10 8
31 30 30 30 29 28 26 24 21 16 12 12 14 14 10 7 5 4 5 5 2 3 6 7 10 11 12 11 11 11 10 10 11 12 13 14 14 13 11 10 11 12 13 13 14 16 16 15 16 16 15 15 17 19 19 19 18 19 21 23 24 24 23 23 22 21 20 18 17 16 15 15 14 13 12 10 8 6 6 9 11 12 12 12 10 9 6
28 28 28 27 25 23 22 20 17 13 12 12 12 9 7 6 3 2 3 3 5 9 12 11 10 10 10 8 8 8 8 7 10 12 12 11 12 12 11 10 11 11 12 13 15 16 16 16 17 18 18 19 19 19 19 18 18 19 20 21 21 21 21 20 20 19 18 17 16 15 14 14 14 13 11 8 6 5 3 6 9 9 9 9 9 8 7
26 26 26 24 22 21 21 20 18 16 14 11 6 4 5 3 1 6 9 8 8 12 13 11 9 9 8 7 7 7 7 7 9 11 11 10 9 10 11 11 10 9 9 12 14 15 15 16 17 18 18 19 20 19 19 18 19 19 20 20 20 19 19 19 18 18 17 16 15 15 14 13 12 11 10 9 8 8 6 5 7 7 6 7 8 7 5
25 26 26 24 21 18 19 19 18 17 15 11 7 7 5 2 5 10 13 12 11 11 11 10 10 10 9 8 7 8 8 8 8 9 8 8 8 9 10 10 10 9 9 10 13 15 15 15 16 16 16 17 18 19 20 20 21 21 21 21 20 19 19 18 17 17 17 17 17 16 15 14 12 9 8 6 6 5 6 6 6 7 7 6 4 3 2
26 26 26 24 20 17 15 15 14 13 12 10 7 6 5 7 11 13 13 13 12 12 12 13 14 14 12 11 11 10 10 10 10 10 9 9 10 10 10 10 10 10 9 9 11 12 12 13 14 15 16 16 18 19 20 21 21 21 21 20 20 20 19 18 17 17 17 18 18 16 14 11 8 7 6 5 4 4 4 6 8 9 8 6 3 1 1
26 24 24 24 22 18 13 11 11 11 9 7 5 5 5 9 13 15 15 15 14 14 14 16 18 17 15 14 13 12 12 12 13 13 13 13 13 14 14 13 13 12 12 12 12 12 11 10 11 12 13 14 15 17 17 18 18 19 19 19 19 18 18 17 17 16 17 16 15 12 10 7 5 6 6 5 5 5 6 7 8 7 6 4 3 2 2
Wind_Direction
256 265 261 241 238 245 246 243 242 245 243 230 230 238 244 242 241 253 261 258 254 264 271 279 292 305 296 286 287 284 285 289 285 282 283 280 281 284 282 284 296 278 234 216 209 207 206 205 205 206 207 206 205 206 208 209 209 210 213 214 212 209 211 214 216 217 218 218 219 221 223 222 220 220 221 220 218 213 209 206 205 206 209 210 210 212 213
273 269 253 233 228 235 236 237 243 244 242 239 241 248 254 251 249 256 269 279 276 272 278 290 303 310 292 283 288 287 288 293 294 293 288 282 284 287 284 292 315 293 245 220 211 208 205 203 203 204 205 204 204 204 206 208 208 210 212 213 210 208 212 216 216 216 217 218 218 219 221 221 219 218 219 219 215 210 206 205 204 204 208 211 211 212 214
286 267 240 237 229 227 231 242 249 246 245 248 249 252 255 255 256 260 266 274 274 274 286 298 298 297 287 281 288 292 295 298 300 299 295 290 289 288 294 318 329 300 252 219 211 208 206 204 202 202 204 204 204 206 207 208 210 212 214 214 211 211 215 215 214 215 217 217 218 218 219 219 218 217 217 217 212 207 207 205 202 203 209 211 208 209 214
304 174 32 322 224 198 220 245 259 258 254 252 253 254 247 240 248 260 262 261 267 286 333 314 294 290 284 280 291 298 300 301 302 301 297 295 292 290 303 325 323 305 270 218 208 208 209 207 203 202 203 202 202 204 207 210 213 214 214 213 211 211 213 212 212 215 217 216 216 216 217 218 218 216 215 213 210 208 207 204 201 205 210 209 205 207 214
303 334 19 36 122 129 193 258 272 269 257 253 258 262 254 242 241 253 260 262 277 313 330 312 301 302 295 291 300 303 300 300 302 299 294 292 290 292 307 321 318 310 297 237 213 208 208 208 206 204 203 203 204 206 209 210 209 207 208 210 211 210 211 211 213 215 215 214 214 215 215 216 216 215 212 209 208 208 204 200 201 206 207 205 204 208 215
299 323 347 292 155 84 37 338 171 227 269 276 272 267 268 265 259 262 270 282 299 314 313 304 303 305 301 299 300 295 291 293 293 291 290 288 286 298 317 326 324 319 309 270 229 212 208 208 207 206 206 207 207 209 208 206 205 206 208 209 209 209 209 211 212 213 212 212 213 214 213 213 213 213 211 208 206 204 200 198 201 203 204 205 208 212 218
291 316 336 309 109 69 29 259 228 232 259 268 266 268 271 267 262 274 294 305 310 313 308 302 299 299 301 299 293 289 287 284 280 280 286 290 296 315 330 333 329 329 311 273 245 218 210 207 205 204 207 206 204 205 206 205 206 208 207 206 206 207 209 210 210 211 211 212 212 211 211 212 211 210 210 209 205 200 199 201 203 202 203 207 210 215 217
308 319 334 343 344 269 255 260 265 275 276 269 261 270 272 251 247 338 346 327 316 317 310 302 298 300 304 300 293 292 286 271 265 277 290 299 313 330 337 334 331 326 281 250 244 224 212 207 205 204 204 204 205 205 205 205 206 207 204 203 204 205 206 207 209 211 212 212 211 209 208 210 210 208 209 210 205 200 201 203 203 204 206 205 208 214 212
338 324 314 297 269 297 318 322 318 319 319 306 279 273 291 227 229 341 337 318 312 318 314 307 304 305 307 301 297 297 280 254 270 296 301 305 324 337 339 336 328 308 253 228 231 224 212 206 206 205 203 204 206 205 203 203 205 205 203 202 203 204 206 208 209 210 212 211 209 207 206 208 209 208 207 209 205 202 202 203 202 203 203 201 205 211 208
339 329 319 316 342 350 342 335 332 333 332 326 296 222 272 213 232 319 325 319 315 315 309 304 304 306 307 291 289 297 284 278 297 309 309 317 335 340 339 339 327 294 240 215 217 218 211 205 203 203 202 202 204 203 202 203 204 203 202 202 203 205 207 210 209 209 211 210 208 207 206 206 208 207 204 206 205 202 202 203 202 201 199 199 203 206 206
348 349 346 346 5 12 321 334 339 335 333 334 334 190 237 222 326 324 322 319 315 306 298 300 303 308 314 295 286 299 303 304 311 318 322 331 341 342 343 343 325 286 230 207 208 210 208 202 200 201 202 201 202 202 201 203 203 203 203 204 206 208 210 210 208 208 210 208 208 209 207 206 208 205 201 202 202 200 203 205 203 202 199 199 201 199 199
356 358 351 336 334 274 308 342 344 333 327 323 306 275 312 337 327 321 317 316 316 312 310 311 312 312 298 287 293 302 306 310 317 324 327 335 344 347 349 347 316 269 222 202 205 205 203 199 197 200 201 200 200 201 201 202 203 203 206 208 209 210 210 208 206 208 210 209 209 210 207 207 208 204 201 204 202 198 202 204 204 202 199 199 200 196 194
355 357 347 323 288 261 331 348 342 329 320 315 343 341 320 316 314 311 309 309 309 311 315 311 304 299 294 288 292 301 307 312 319 325 328 338 347 349 349 348 301 252 220 197 201 200 199 199 197 198 198 198 199 200 201 202 204 206 209 210 210 209 207 205 206 209 210 210 210 209 206 208 209 204 203 209 205 198 199 200 198 197 197 198 198 195 194
352 349 335 320 293 52 353 342 335 331 329 334 333 312 306 308 308 308 310 308 306 310 308 296 293 302 306 303 300 303 309 314 319 327 333 341 350 355 358 358 296 237 218 198 200 198 198 201 200 198 198 199 199 200 201 203 208 210 211 210 209 206 204 205 207 209 210 210 208 207 208 211 209 203 205 211 206 199 200 200 197 197 198 196 193 192 196
342 337 341 344 328 333 340 337 336 347 352 318 307 307 309 312 312 312 313 309 305 306 304 301 305 309 312 315 313 312 316 320 323 330 336 342 351 1 9 13 349 228 222 207 201 197 197 201 203 202 202 201 201 203 205 206 209 210 209 209 207 204 203 206 209 210 210 209 207 206 208 209 207 206 209 209 203 200 202 201 199 198 197 194 191 193 197
347 338 342 347 292 303 322 329 317 305 307 304 305 307 310 312 314 316 312 306 306 308 308 312 316 314 313 318 320 320 324 327 328 332 338 345 352 360 7 14 20 237 226 220 207 200 199 200 202 205 205 204 203 206 208 208 206 205 204 205 205 204 204 206 210 212 212 209 207 207 205 204 207 211 211 205 199 200 202 200 199 197 193 194 196 197 198
310 291 283 280 280 293 309 314 301 297 307 317 319 315 306 306 312 316 312 306 310 317 318 317 316 314 313 318 320 322 325 327 328 330 337 345 352 357 3 11 25 49 208 223 217 208 205 203 204 207 208 206 205 205 206 206 206 204 201 197 196 200 203 205 207 211 211 207 204 204 205 205 205 207 209 205 201 201 201 202 203 200 194 196 200 199 198
295 276 268 276 291 308 315 313 306 305 316 326 328 326 320 317 319 321 318 313 316 322 324 320 317 316 316 316 318 323 325 326 329 334 341 351 356 358 3 9 20 41 123 211 217 216 215 210 208 209 208 207 208 206 203 201 202 201 199 196 194 197 204 208 207 204 203 201 199 201 206 207 204 206 210 208 203 202 204 206 207 203 198 200 203 201 199
321 304 292 303 317 318 312 305 308 322 330 331 333 333 331 327 325 325 324 323 324 327 327 323 319 320 320 317 317 321 324 328 336 342 348 356 1 3 9 14 19 36 75 183 209 218 220 216 211 210 207 205 209 209 205 203 202 200 200 201 198 195 198 204 206 204 204 206 204 202 203 204 205 210 213 209 204 205 207 207 206 202 200 202 204 203 201
311 299 311 321 318 311 301 295 310 328 334 334 334 333 333 334 334 333 334 333 331 330 330 327 323 324 328 325 319 320 327 334 342 346 350 357 3 8 14 15 19 38 64 127 195 212 220 219 216 213 209 206 211 212 210 208 206 204 203 202 200 195 194 198 201 203 207 209 206 201 201 202 205 209 209 207 206 207 207 206 203 200 199 201 203 204 202
306 300 320 328 323 317 321 327 328 331 334 332 330 332 336 338 340 340 341 343 342 339 335 333 331 332 336 335 325 330 342 346 346 348 353 357 2 10 16 16 20 35 55 84 170 207 218 220 220 218 214 214 217 217 215 214 211 208 205 202 199 197 196 197 197 197 201 205 203 201 203 206 207 210 210 209 208 206 205 203 200 197 198 200 203 204 202
320 317 324 331 331 322 321 323 324 326 330 329 328 330 334 335 336 338 340 344 349 349 344 341 340 341 346 350 347 349 357 355 349 352 356 356 359 10 18 18 19 28 44 57 78 187 212 220 223 221 219 220 221 219 219 220 218 212 207 202 199 197 194 192 192 193 197 201 200 201 205 207 208 211 213 212 212 210 203 196 193 197 202 203 204 204 201
302 304 313 320 317 302 302 310 316 320 326 330 329 329 331 332 335 339 340 342 345 347 346 347 345 342 350 3 7 3 2 358 354 355 360 2 4 9 14 16 17 24 38 43 40 46 181 224 227 225 225 225 223 220 220 224 224 219 211 204 202 201 195 190 188 190 193 195 196 199 204 206 207 211 212 209 209 212 207 196 192 197 202 201 202 204 200
295 302 312 314 309 302 302 308 313 317 323 330 328 328 332 335 338 343 346 346 346 345 344 346 348 347 355 9 15 11 7 5 3 5 10 15 16 14 15 19 19 21 32 39 36 32 25 254 233 232 231 229 226 224 224 226 227 225 220 211 206 203 199 194 191 189 188 190 195 199 203 205 208 212 210 204 201 204 205 198 193 193 193 189 188 193 196
299 306 313 311 303 300 303 310 316 320 328 332 329 331 338 339 339 345 350 351 352 350 343 342 346 350 356 9 18 19 14 10 15 22 23 23 23 21 23 27 26 22 22 31 39 31 11 298 248 241 236 232 231 230 230 230 227 225 224 217 208 204 201 197 194 189 187 190 194 198 201 205 208 209 205 199 196 197 197 195 191 188 183 179 179 182 188
311 309 317 318 315 315 319 323 325 329 336 338 333 336 343 343 341 347 352 352 354 354 348 343 345 350 356 6 18 23 19 15 21 26 24 22 24 24 22 23 24 19 15 18 34 20 342 285 253 244 238 235 233 230 230 231 228 226 224 219 212 209 207 202 196 192 192 193 193 195 201 206 207 203 198 196 198 195 189 186 185 181 177 175 175 177 181
332 328 329 327 325 329 333 331 326 328 335 337 332 334 342 344 343 347 353 355 357 358 353 347 348 353 356 1 12 21 21 19 21 22 20 22 24 22 19 16 12 9 9 14 21 6 338 303 269 252 243 236 232 229 226 224 223 223 221 215 211 211 210 206 200 195 196 197 194 193 198 202 202 200 199 202 203 196 184 180 179 177 174 174 175 176 179
336 337 335 320 309 316 323 326 326 328 331 333 331 333 340 344 345 348 353 355 356 355 352 350 353 357 356 356 5 15 18 17 18 18 19 22 23 22 22 19 13 10 8 5 3 358 339 311 288 274 263 251 241 232 225 219 217 218 216 213 210 207 204 201 197 195 198 201 199 196 196 198 200 202 203 202 198 191 184 181 180 178 178 177 177 176 176
337 338 336 329 320 315 316 323 329 331 332 335 337 338 342 345 345 346 349 350 350 351 350 349 352 357 358 356 359 6 11 13 13 13 16 20 22 24 25 25 24 20 15 9 3 354 337 320 305 292 280 271 260 244 230 219 216 215 214 211 209 205 198 194 194 195 198 200 199 197 197 199 200 201 200 195 190 186 186 184 182 183 184 182 180 178 176
334 336 335 335 335 330 323 327 332 333 334 337 338 339 342 343 341 341 345 347 347 349 351 349 349 354 358 357 355 358 4 9 8 9 13 18 23 28 31 34 36 31 21 14 8 358 343 326 311 293 277 269 260 249 236 224 217 212 208 206 205 202 197 194 195 197 198 196 195 195 197 198 197 194 192 188 182 181 183 182 179 183 185 184 183 183 182
326 329 332 334 336 333 330 331 331 331 332 335 335 336 339 342 340 338 341 343 341 340 344 346 346 349 353 354 354 355 359 6 10 11 13 18 26 33 35 38 41 40 33 28 25 19 8 346 303 262 246 242 231 226 225 221 215 207 200 197 197 196 195 195 196 198 198 195 193 194 194 192 186 181 178 175 170 170 175 177 175 175 177 179 181 185 187
324 326 330 332 332 331 330 329 327 327 329 332 332 332 335 338 334 330 333 337 334 330 334 340 342 344 347 350 352 354 356 2 12 15 17 23 32 38 38 38 43 49 50 47 45 42 32 19 54 129 99 85 201 203 203 208 209 204 196 190 186 185 187 189 190 190 189 184 179 180 181 178 174 169 166 165 165 166 170 172 171 170 171 175 179 182 188
323 323 325 326 326 325 323 323 323 323 325 327 327 327 329 331 329 327 330 333 330 324 327 334 337 339 343 347 350 351 352 359 14 20 20 24 32 38 39 37 41 51 54 51 51 57 60 59 72 87 80 72 109 174 186 195 198 193 183 176 171 168 167 167 165 164 162 158 155 159 162 163 162 162 161 162 164 167 170 171 171 171 173 176 180 184 189
314 309 310 312 314 314 315 316 317 319 321 322 322 323 326 328 329 329 331 331 327 321 322 327 329 334 342 346 349 352 353 1 15 23 22 23 29 35 37 34 37 51 58 56 56 62 66 66 71 80 82 81 84 103 144 167 168 160 152 149 148 146 145 146 148 147 147 147 149 151 154 156 157 159 160 162 166 169 171 172 173 174 175 177 180 184 187
311 307 307 307 308 309 312 314 316 318 319 318 318 320 322 325 328 329 328 328 324 319 317 320 323 330 338 342 347 354 357 1 14 23 24 24 26 29 34 39 43 53 65 70 70 72 75 75 77 82 86 86 87 91 104 122 132 133 133 135 138 139 140 145 148 148 147 149 150 151 154 158 160 161 164 167 168 170 171 172 173 175 177 178 180 181 183
314 313 312 311 312 314 316 316 316 317 316 315 315 317 319 322 325 326 324 323 320 316 314 315 319 325 332 337 342 351 355 359 9 20 24 27 27 26 33 43 47 52 64 75 80 83 89 91 91 93 96 96 96 99 106 117 128 134 138 140 141 141 143 147 149 150 150 152 153 155 158 161 163 164 168 170 168 167 167 167 168 172 175 178 180 180 180
318 316 313 312 314 316 317 317 316 315 314 313 313 314 316 319 321 320 318 318 316 313 313 314 315 318 325 331 336 345 352 356 1 10 22 30 32 32 39 49 55 58 65 73 81 90 98 103 107 112 114 112 112 115 121 128 133 137 140 141 140 141 143 145 147 149 151 152 154 157 159 160 161 161 162 163 163 163 165 167 169 172 175 179 182 184 186
318 316 314 314 316 317 317 316 315 315 315 314 311 311 314 315 315 315 315 313 309 309 312 314 314 316 319 325 333 342 351 356 359 8 25 35 35 39 48 58 66 71 72 75 81 90 99 104 111 122 126 123 123 125 128 133 137 139 140 140 139 140 141 143 145 148 149 150 152 154 155 157 159 158 158 159 161 163 165 169 171 174 177 181 185 189 193
320 321 321 322 323 323 322 320 319 318 318 316 314 314 316 313 311 312 313 308 303 306 312 314 316 319 320 323 332 341 350 357 4 17 33 38 41 51 57 61 69 79 84 87 88 92 98 104 112 121 126 126 126 127 129 134 138 140 140 140 138 138 139 141 142 144 145 145 146 147 147 149 150 150 151 155 159 162 165 169 174 176 179 182 185 188 191
325 326 326 326 327 328 327 325 323 321 319 318 318 318 317 314 311 311 311 306 300 303 309 314 321 329 331 331 336 345 353 3 14 28 39 40 46 61 70 72 77 85 92 99 102 102 102 105 111 117 122 125 128 130 133 138 141 141 140 139 138 138 139 140 141 141 141 141 141 140 139 138 138 139 141 145 150 154 157 159 161 163 166 170 176 180 183
327 327 327 327 328 330 329 328 326 324 321 321 323 323 321 319 316 315 316 312 303 300 304 308 318 334 337 334 335 343 354 8 22 34 43 46 54 70 80 82 85 90 93 98 106 113 113 111 110 115 121 126 130 132 135 137 139 140 140 138 137 136 138 139 139 140 141 142 141 140 139 138 138 139 139 141 145 148 149 148 148 149 153 158 165 170 175
329 330 331 330 330 331 331 329 327 325 323 324 328 331 329 323 316 312 314 312 301 294 294 294 306 330 337 333 331 339 354 16 34 45 57 64 68 78 85 87 88 91 93 95 105 117 121 120 119 120 120 121 122 124 127 130 132 134 135 134 133 134 136 137 138 140 142 142 142 141 141 141 142 144 146 150 155 160 162 161 159 158 159 162 168 173 177
332 333 332 330 329 329 329 327 325 325 325 325 331 336 333 322 306 299 300 296 286 282 282 283 297 322 332 337 348 2 20 43 56 76 97 99 92 91 94 94 92 92 93 95 103 113 119 121 122 122 120 118 118 120 124 126 127 129 131 132 132 134 136 136 135 135 134 133 132 131 133 136 141 147 153 158 163 167 169 169 167 166 167 171 175 176 176
334 333 331 331 330 329 328 324 321 322 323 324 331 336 332 320 303 294 287 278 276 281 284 290 318 353 10 29 50 78 99 97 90 96 110 111 106 103 104 102 97 96 97 99 104 113 119 122 123 125 126 124 122 122 124 126 128 131 133 134 135 135 134 132 130 127 125 123 122 122 122 125 129 137 147 155 162 168 169 168 168 168 168 167 165 162 157
335 333 331 331 332 332 329 323 319 319 321 323 327 328 323 313 303 291 273 265 278 295 300 39 64 62 60 60 64 74 87 93 95 99 106 107 104 101 105 107 103 99 99 103 109 117 121 123 125 129 132 131 129 127 126 127 130 133 135 136 135 134 131 128 125 123 121 119 117 114 113 112 113 119 133 144 152 162 170 174 173 169 164 160 158 154 147
336 335 334 334 334 332 328 322 318 318 319 319 319 319 316 310 302 280 258 262 296 350 81 94 87 78 69 65 67 73 80 89 95 96 98 99 99 99 104 109 109 106 107 108 111 115 119 122 125 127 129 131 133 134 134 135 136 139 141 141 139 136 134 131 127 124 121 116 110 106 103 100 97 103 119 133 139 148 164 176 178 173 168 164 162 158 149
339 338 337 337 335 333 330 325 321 320 322 319 317 321 326 327 312 271 244 247 246 108 100 93 90 88 81 75 75 79 82 89 94 93 90 90 93 95 97 98 102 108 113 115 113 112 113 117 118 117 117 121 126 131 134 135 136 138 142 145 144 140 137 132 128 123 119 114 109 107 106 103 98 99 108 117 120 125 150 174 183 183 181 179 176 174 175
344 342 341 340 338 337 337 335 333 337 339 329 323 334 353 349 324 180 163 170 145 121 110 101 94 87 80 75 76 78 78 88 99 99 93 88 90 96 98 95 93 98 107 114 115 114 113 113 113 113 115 118 120 120 122 126 128 132 137 143 145 143 138 131 124 119 116 114 115 117 116 108 99 93 90 84 69 62 107 173 185 187 190 196 197 191 185
352 352 349 345 343 344 346 347 350 357 359 352 357 47 48 18 120 129 118 114 114 108 102 97 91 79 69 65 69 73 79 93 103 102 99 97 97 101 103 100 97 98 106 113 117 116 114 113 115 117 120 120 118 115 117 122 126 129 132 135 138 139 135 129 125 123 122 122 125 125 118 108 99 93 87 80 72 69 87 132 161 169 174 182 185 181 176
2 3 359 354 351 353 354 354 356 2 4 9 37 74 79 101 135 125 117 114 112 105 95 89 85 78 72 71 74 76 81 88 93 95 100 105 104 102 101 100 100 101 108 115 119 121 119 118 118 120 122 121 119 119 123 126 128 129 131 133 134 134 133 131 131 132 130 127 127 125 119 112 108 104 97 93 92 96 110 130 144 147 147 150 162 186 226
8 9 7 3 360 0 0 360 3 6 5 8 30 66 110 145 144 133 123 117 111 102 96 96 94 90 87 86 84 80 79 83 89 95 101 105 105 105 105 102 100 100 102 106 112 118 120 120 120 122 124 125 125 126 128 130 131 133 136 137 136 136 135 136 138 139 136 133 131 129 124 115 104 94 89 87 87 104 134 148 148 145 144 144 147 169 201
12 13 14 12 9 6 5 10 18 22 18 16 29 60 115 143 142 134 125 118 111 105 104 104 103 102 100 97 92 88 86 87 90 93 96 98 101 104 104 103 102 103 102 102 102 103 104 106 111 118 126 131 133 134 135 138 140 140 141 142 143 143 142 141 141 142 142 143 140 135 127 115 94 82 88 95 95 100 117 132 135 131 129 131 133 137 156